| time (UTC) | temp F | wind direction | speed MPH | gust MPH | rain 1hr in | rain 24hr in | rain mn in | humidity % | barometer mb |
| 20260510170413 | 60 | 24 | 1.0 | 1.0 | 0.00 | 0.00 | 0.00 | 33 | 1019.5 |
| 20260510165908 | 59 | 83 | 4.0 | 6.0 | 0.00 | 0.00 | 0.00 | 37 | 1019.5 |
| 20260510165404 | 59 | 30 | 3.0 | 3.0 | 0.00 | 0.00 | 0.00 | 36 | 1019.3 |
| 20260510164902 | 58 | 211 | 3.0 | 3.0 | 0.00 | 0.00 | 0.00 | 33 | 1019.4 |
| 20260510164359 | 59 | 285 | 11.0 | 13.0 | 0.00 | 0.00 | 0.00 | 33 | 1019.4 |
| 20260510163859 | 59 | 357 | 3.0 | 3.0 | 0.00 | 0.00 | 0.00 | 32 | 1019.3 |
| 20260510163355 | 59 | 32 | 5.0 | 6.0 | 0.00 | 0.00 | 0.00 | 34 | 1019.1 |
| 20260510162849 | 60 | 44 | 1.0 | 1.0 | 0.00 | 0.00 | 0.00 | 38 | 1019.4 |
| 20260510162347 | 59 | 329 | 1.0 | 2.0 | 0.00 | 0.00 | 0.00 | 39 | 1019.1 |
| 20260510161842 | 59 | 97 | 4.0 | 5.0 | 0.00 | 0.00 | 0.00 | 35 | 1019.0 |
| 20260510161339 | 58 | 154 | 1.0 | 1.0 | 0.00 | 0.00 | 0.00 | 48 | 1019.0 |
| 20260510160836 | 58 | 114 | 3.0 | 2.0 | 0.00 | 0.00 | 0.00 | 35 | 1018.9 |
| 20260510160332 | 58 | 31 | 3.0 | 5.0 | 0.00 | 0.00 | 0.00 | 41 | 1019.0 |
| 20260510155826 | 58 | 25 | 1.0 | 1.0 | 0.00 | 0.00 | 0.00 | 39 | 1019.0 |
| 20260510155324 | 57 | 328 | 5.0 | 6.0 | 0.00 | 0.00 | 0.00 | 37 | 1018.8 |
| 20260510154819 | 58 | 56 | 3.0 | 5.0 | 0.00 | 0.00 | 0.00 | 41 | 1018.8 |
| 20260510154315 | 57 | 308 | 3.0 | 3.0 | 0.00 | 0.00 | 0.00 | 45 | 1018.8 |
| 20260510153810 | 57 | 253 | 4.0 | 5.0 | 0.00 | 0.00 | 0.00 | 39 | 1018.7 |
| 20260510153306 | 57 | 22 | 1.0 | 2.0 | 0.00 | 0.00 | 0.00 | 45 | 1018.8 |
| 20260510152803 | 57 | 287 | 2.0 | 2.0 | 0.00 | 0.00 | 0.00 | 44 | 1018.6 |
| 20260510152300 | 57 | 314 | 4.0 | 6.0 | 0.00 | 0.00 | 0.00 | 43 | 1018.7 |
| 20260510151756 | 57 | 259 | 2.0 | 3.0 | 0.00 | 0.00 | 0.00 | 41 | 1018.6 |
| 20260510151255 | 57 | 34 | 2.0 | 2.0 | 0.00 | 0.00 | 0.00 | 47 | 1018.7 |
| 20260510150750 | 57 | 41 | 2.0 | 3.0 | 0.00 | 0.00 | 0.00 | 42 | 1018.5 |
| 20260510150246 | 56 | 30 | 2.0 | 2.0 | 0.00 | 0.00 | 0.00 | 44 | 1018.3 |
| 20260510145742 | 56 | 275 | 5.0 | 6.0 | 0.00 | 0.00 | 0.00 | 45 | 1018.3 |
| 20260510145239 | 56 | 79 | 1.0 | 1.0 | 0.00 | 0.00 | 0.00 | 44 | 1018.3 |
| 20260510144734 | 56 | 284 | 2.0 | 2.0 | 0.00 | 0.00 | 0.00 | 46 | 1018.4 |
| 20260510144232 | 55 | 42 | 3.0 | 3.0 | 0.00 | 0.00 | 0.00 | 43 | 1018.3 |
| 20260510143726 | 55 | 28 | 2.0 | 2.0 | 0.00 | 0.00 | 0.00 | 43 | 1018.4 |
| 20260510143223 | 55 | 254 | 5.0 | 7.0 | 0.00 | 0.00 | 0.00 | 43 | 1018.4 |
| 20260510142719 | 55 | 32 | 1.0 | 1.0 | 0.00 | 0.00 | 0.00 | 43 | 1018.1 |
| 20260510142216 | 55 | 26 | 4.0 | 5.0 | 0.00 | 0.00 | 0.00 | 43 | 1018.3 |
| 20260510141713 | 55 | 61 | 2.0 | 2.0 | 0.00 | 0.00 | 0.00 | 45 | 1018.1 |
| 20260510141212 | 54 | 109 | 3.0 | 6.0 | 0.00 | 0.00 | 0.00 | 48 | 1018.4 |
| 20260510140708 | 54 | 46 | 2.0 | 1.0 | 0.00 | 0.00 | 0.00 | 44 | 1018.2 |
| 20260510140207 | 53 | 0 | 4.0 | 7.0 | 0.00 | 0.00 | 0.00 | 43 | 1018.2 |
| 20260510135702 | 53 | 30 | 3.0 | 3.0 | 0.00 | 0.00 | 0.00 | 45 | 1018.5 |
| 20260510135158 | 53 | 16 | 5.0 | 7.0 | 0.00 | 0.00 | 0.00 | 44 | 1018.3 |
| 20260510134656 | 53 | 5 | 2.0 | 2.0 | 0.00 | 0.00 | 0.00 | 51 | 1018.2 |
| 20260510134153 | 52 | 14 | 4.0 | 6.0 | 0.00 | 0.00 | 0.00 | 51 | 1018.2 |
| 20260510133649 | 52 | 338 | 2.0 | 2.0 | 0.00 | 0.00 | 0.00 | 54 | 1018.1 |
| 20260510133144 | 52 | 309 | 2.0 | 2.0 | 0.00 | 0.00 | 0.00 | 55 | 1018.1 |
| 20260510132641 | 51 | 28 | 2.0 | 2.0 | 0.00 | 0.00 | 0.00 | 55 | 1017.8 |
| 20260510132139 | 51 | 3 | 2.0 | 2.0 | 0.00 | 0.00 | 0.00 | 57 | 1017.8 |
| 20260510131636 | 50 | 325 | 1.0 | 1.0 | 0.00 | 0.00 | 0.00 | 63 | 1017.7 |
| 20260510131133 | 50 | 3 | 2.0 | 2.0 | 0.00 | 0.00 | 0.00 | 63 | 1017.9 |
| 20260510130630 | 50 | 26 | 1.0 | 1.0 | 0.00 | 0.00 | 0.00 | 63 | 1017.4 |
| 20260510130127 | 49 | 38 | 1.0 | 1.0 | 0.00 | 0.00 | 0.00 | 66 | 1017.5 |
| 20260510125623 | 49 | 48 | 0.0 | 0.0 | 0.00 | 0.00 | 0.00 | 72 | 1017.3 |
| 20260510125120 | 49 | 17 | 4.0 | 6.0 | 0.00 | 0.00 | 0.00 | 68 | 1017.4 |
| 20260510124617 | 49 | 43 | 1.0 | 1.0 | 0.00 | 0.00 | 0.00 | 73 | 1017.4 |
| 20260510124113 | 50 | 219 | 2.0 | 2.0 | 0.00 | 0.00 | 0.00 | 73 | 1017.3 |
| 20260510123609 | 49 | 47 | 1.0 | 1.0 | 0.00 | 0.00 | 0.00 | 73 | 1017.2 |
| 20260510123105 | 49 | 67 | 1.0 | 1.0 | 0.00 | 0.00 | 0.00 | 72 | 1017.1 |
| 20260510122601 | 48 | 10 | 1.0 | 1.0 | 0.00 | 0.00 | 0.00 | 73 | 1017.0 |
| 20260510122057 | 48 | 20 | 2.0 | 2.0 | 0.00 | 0.00 | 0.00 | 77 | 1017.2 |
| 20260510121554 | 48 | 295 | 2.0 | 2.0 | 0.00 | 0.00 | 0.00 | 78 | 1017.0 |
| 20260510121051 | 48 | 15 | 1.0 | 1.0 | 0.00 | 0.00 | 0.00 | 78 | 1016.9 |
| 20260510120549 | 48 | 27 | 1.0 | 2.0 | 0.00 | 0.00 | 0.00 | 78 | 1016.9 |
| 20260510120044 | 48 | 136 | 0.0 | 1.0 | 0.00 | 0.00 | 0.00 | 81 | 1016.5 |
| 20260510115541 | 48 | 24 | 1.0 | 1.0 | 0.00 | 0.00 | 0.00 | 81 | 1016.3 |
| 20260510115039 | 48 | 195 | 3.0 | 3.0 | 0.00 | 0.00 | 0.00 | 83 | 1016.2 |
| 20260510114534 | 48 | 330 | 0.0 | 1.0 | 0.00 | 0.00 | 0.00 | 85 | 1016.0 |
| 20260510114030 | 48 | 25 | 2.0 | 2.0 | 0.00 | 0.00 | 0.00 | 85 | 1016.0 |
| 20260510113526 | 48 | 356 | 0.0 | 0.0 | 0.00 | 0.00 | 0.00 | 86 | 1016.0 |
| 20260510113024 | 48 | 354 | 1.0 | 1.0 | 0.00 | 0.00 | 0.00 | 85 | 1015.9 |
| 20260510112520 | 48 | 38 | 0.0 | 0.0 | 0.00 | 0.00 | 0.00 | 83 | 1015.6 |
| 20260510112016 | 48 | 323 | 0.0 | 0.0 | 0.00 | 0.00 | 0.00 | 83 | 1015.7 |
| 20260510111514 | 48 | 278 | 0.0 | 0.0 | 0.00 | 0.00 | 0.00 | 84 | 1015.5 |
| 20260510111009 | 48 | 21 | 1.0 | 1.0 | 0.00 | 0.00 | 0.00 | 86 | 1015.5 |
| 20260510110505 | 48 | 22 | 0.0 | 0.0 | 0.00 | 0.00 | 0.00 | 86 | 1015.3 |
| 20260510110002 | 48 | 351 | 0.0 | 1.0 | 0.00 | 0.00 | 0.00 | 86 | 1015.2 |
| 20260510105457 | 47 | 319 | 1.0 | 2.0 | 0.00 | 0.00 | 0.00 | 88 | 1015.0 |
| 20260510104952 | 47 | 255 | 1.0 | 1.0 | 0.00 | 0.00 | 0.00 | 89 | 1015.0 |
| 20260510104449 | 47 | 228 | 0.0 | 1.0 | 0.00 | 0.00 | 0.00 | 90 | 1014.8 |
| 20260510103945 | 47 | 127 | 0.0 | 0.0 | 0.00 | 0.00 | 0.00 | 91 | 1014.9 |
| 20260510103443 | 46 | 300 | 0.0 | 0.0 | 0.00 | 0.00 | 0.00 | 91 | 1014.5 |
| 20260510102938 | 46 | 300 | 1.0 | 1.0 | 0.00 | 0.00 | 0.00 | 91 | 1014.4 |
| 20260510102434 | 46 | 301 | 0.0 | 0.0 | 0.00 | 0.00 | 0.00 | 91 | 1014.4 |
| 20260510101931 | 46 | 299 | 2.0 | 2.0 | 0.00 | 0.00 | 0.00 | 91 | 1014.3 |
| 20260510101429 | 46 | 270 | 0.0 | 0.0 | 0.00 | 0.00 | 0.00 | 90 | 1014.4 |
| 20260510100927 | 46 | 278 | 0.0 | 1.0 | 0.00 | 0.00 | 0.00 | 90 | 1014.0 |
| 20260510100423 | 46 | 307 | 0.0 | 0.0 | 0.00 | 0.00 | 0.00 | 90 | 1013.9 |
| 20260510095919 | 47 | 307 | 0.0 | 0.0 | 0.00 | 0.00 | 0.00 | 89 | 1014.1 |
| 20260510095415 | 46 | 300 | 5.0 | 6.0 | 0.00 | 0.00 | 0.00 | 90 | 1014.3 |
| 20260510094914 | 47 | 249 | 0.0 | 0.0 | 0.00 | 0.00 | 0.00 | 90 | 1014.0 |
| 20260510094409 | 47 | 247 | 0.0 | 0.0 | 0.00 | 0.00 | 0.00 | 89 | 1013.9 |
| 20260510093905 | 47 | 247 | 0.0 | 0.0 | 0.00 | 0.00 | 0.00 | 89 | 1013.8 |
| 20260510093401 | 47 | 247 | 0.0 | 0.0 | 0.00 | 0.00 | 0.00 | 89 | 1013.9 |
| 20260510092857 | 47 | 247 | 0.0 | 0.0 | 0.00 | 0.00 | 0.00 | 88 | 1013.9 |
| 20260510092354 | 46 | 286 | 1.0 | 1.0 | 0.00 | 0.00 | 0.00 | 89 | 1013.5 |
| 20260510091849 | 46 | 279 | 0.0 | 0.0 | 0.00 | 0.00 | 0.00 | 91 | 1013.4 |
| 20260510091347 | 46 | 269 | 0.0 | 0.0 | 0.00 | 0.00 | 0.00 | 91 | 1013.3 |
| 20260510090843 | 46 | 269 | 0.0 | 0.0 | 0.00 | 0.00 | 0.00 | 90 | 1013.5 |
| 20260510090340 | 46 | 269 | 0.0 | 0.0 | 0.00 | 0.00 | 0.00 | 90 | 1013.3 |
| 20260510085835 | 46 | 299 | 0.0 | 0.0 | 0.00 | 0.00 | 0.00 | 93 | 1013.3 |
| 20260510085330 | 46 | 299 | 1.0 | 1.0 | 0.00 | 0.00 | 0.00 | 93 | 1012.9 |
| 20260510084826 | 46 | 298 | 1.0 | 1.0 | 0.00 | 0.00 | 0.00 | 93 | 1013.2 |
| 20260510084323 | 46 | 299 | 0.0 | 0.0 | 0.00 | 0.00 | 0.00 | 93 | 1012.8 |
| 20260510083820 | 46 | 299 | 0.0 | 0.0 | 0.00 | 0.00 | 0.00 | 92 | 1012.8 |
| 20260510083317 | 46 | 299 | 0.0 | 0.0 | 0.00 | 0.00 | 0.00 | 92 | 1012.8 |
| 20260510082812 | 46 | 299 | 0.0 | 0.0 | 0.00 | 0.00 | 0.00 | 91 | 1012.6 |
| 20260510082310 | 47 | 299 | 0.0 | 0.0 | 0.00 | 0.00 | 0.00 | 90 | 1012.7 |
| 20260510081809 | 47 | 299 | 0.0 | 0.0 | 0.00 | 0.00 | 0.00 | 89 | 1012.8 |
| 20260510081304 | 47 | 299 | 0.0 | 0.0 | 0.00 | 0.00 | 0.00 | 88 | 1012.7 |
| 20260510080801 | 47 | 299 | 0.0 | 0.0 | 0.00 | 0.00 | 0.00 | 87 | 1012.5 |
| 20260510080255 | 48 | 298 | 0.0 | 0.0 | 0.00 | 0.00 | 0.00 | 86 | 1012.8 |
| 20260510075753 | 48 | 298 | 0.0 | 0.0 | 0.00 | 0.00 | 0.00 | 84 | 1012.4 |
| 20260510075250 | 48 | 298 | 0.0 | 0.0 | 0.00 | 0.00 | 0.00 | 83 | 1012.2 |
| 20260510074747 | 48 | 298 | 0.0 | 0.0 | 0.00 | 0.00 | 0.00 | 83 | 1012.1 |
| 20260510074244 | 48 | 298 | 0.0 | 0.0 | 0.00 | 0.00 | 0.00 | 82 | 1012.1 |
| 20260510073740 | 48 | 297 | 1.0 | 0.0 | 0.00 | 0.00 | 0.00 | 83 | 1011.9 |
| 20260510073236 | 49 | 248 | 0.0 | 0.0 | 0.00 | 0.00 | 0.00 | 83 | 1011.8 |
| 20260510072731 | 49 | 247 | 1.0 | 1.0 | 0.00 | 0.00 | 0.00 | 81 | 1012.0 |
| 20260510072228 | 50 | 247 | 0.0 | 0.0 | 0.00 | 0.00 | 0.00 | 81 | 1011.9 |
| 20260510071725 | 50 | 264 | 1.0 | 1.0 | 0.00 | 0.00 | 0.00 | 80 | 1011.9 |
| 20260510071221 | 50 | 287 | 0.0 | 1.0 | 0.00 | 0.00 | 0.00 | 80 | 1011.8 |
| 20260510070720 | 50 | 307 | 1.0 | 1.0 | 0.00 | 0.00 | 0.00 | 84 | 1011.8 |
| 20260510070217 | 50 | 319 | 1.0 | 1.0 | 0.00 | 0.00 | 0.00 | 83 | 1011.7 |
| 20260510065712 | 50 | 318 | 1.0 | 1.0 | 0.00 | 0.00 | 0.00 | 85 | 1011.5 |
| 20260510065208 | 51 | 284 | 1.0 | 1.0 | 0.00 | 0.00 | 0.00 | 86 | 1011.6 |
| 20260510064705 | 51 | 355 | 1.0 | 1.0 | 0.00 | 0.00 | 0.00 | 87 | 1011.3 |
| 20260510064203 | 51 | 9 | 1.0 | 1.0 | 0.00 | 0.00 | 0.00 | 87 | 1011.2 |
| 20260510063659 | 51 | 2 | 1.0 | 1.0 | 0.00 | 0.00 | 0.00 | 90 | 1011.5 |
| 20260510063155 | 51 | 39 | 0.0 | 0.0 | 0.00 | 0.00 | 0.00 | 90 | 1011.1 |
| 20260510062652 | 52 | 32 | 1.0 | 1.0 | 0.00 | 0.00 | 0.00 | 89 | 1011.2 |
| 20260510062148 | 52 | 2 | 0.0 | 0.0 | 0.00 | 0.00 | 0.00 | 90 | 1011.3 |
| 20260510061643 | 53 | 350 | 1.0 | 1.0 | 0.00 | 0.00 | 0.00 | 92 | 1011.4 |
| 20260510061141 | 53 | 9 | 2.0 | 2.0 | 0.00 | 0.00 | 0.00 | 94 | 1011.3 |
| 20260510060637 | 54 | 3 | 3.0 | 2.0 | 0.00 | 0.00 | 0.00 | 95 | 1011.2 |
| 20260510060134 | 54 | 207 | 2.0 | 2.0 | 0.00 | 0.00 | 0.00 | 95 | 1011.1 |
| 20260510055630 | 54 | 149 | 1.0 | 1.0 | 0.00 | 0.00 | 0.00 | 95 | 1010.8 |
| 20260510055128 | 54 | 148 | 0.0 | 0.0 | 0.00 | 0.00 | 0.00 | 95 | 1010.7 |
| 20260510054623 | 54 | 170 | 0.0 | 0.0 | 0.00 | 0.00 | 0.00 | 95 | 1010.6 |
| 20260510054119 | 54 | 140 | 0.0 | 0.0 | 0.00 | 0.00 | 0.00 | 95 | 1010.7 |
| 20260510053618 | 54 | 142 | 0.0 | 0.0 | 0.00 | 0.00 | 0.00 | 95 | 1011.1 |
| 20260510053115 | 53 | 83 | 0.0 | 0.0 | 0.00 | 0.00 | 0.00 | 95 | 1010.8 |
| 20260510052611 | 53 | 150 | 0.0 | 0.0 | 0.00 | 0.00 | 0.00 | 95 | 1010.8 |
| 20260510052108 | 53 | 150 | 0.0 | 0.0 | 0.00 | 0.00 | 0.00 | 94 | 1010.3 |
| 20260510051603 | 53 | 178 | 0.0 | 0.0 | 0.00 | 0.00 | 0.00 | 94 | 1010.2 |
| 20260510051101 | 53 | 200 | 0.0 | 0.0 | 0.00 | 0.00 | 0.00 | 94 | 1010.3 |
| 20260510050558 | 53 | 275 | 0.0 | 0.0 | 0.00 | 0.00 | 0.00 | 94 | 1010.0 |
| 20260510050055 | 53 | 14 | 3.0 | 3.0 | 0.00 | 0.00 | 0.00 | 93 | 1010.3 |
| 20260510045552 | 53 | 25 | 2.0 | 2.0 | 0.00 | 0.00 | 0.00 | 93 | 1010.0 |
| 20260510045048 | 53 | 143 | 1.0 | 1.0 | 0.00 | 0.00 | 0.00 | 93 | 1009.5 |
| 20260510044544 | 54 | 138 | 0.0 | 1.0 | 0.00 | 0.00 | 0.00 | 92 | 1009.3 |
| 20260510044042 | 54 | 150 | 0.0 | 0.0 | 0.00 | 0.00 | 0.00 | 92 | 1009.3 |
| 20260510043537 | 54 | 118 | 1.0 | 1.0 | 0.00 | 0.00 | 0.00 | 92 | 1009.1 |
| 20260510043033 | 54 | 175 | 2.0 | 2.0 | 0.00 | 0.00 | 0.00 | 92 | 1009.1 |
| 20260510042527 | 54 | 153 | 0.0 | 0.0 | 0.00 | 0.00 | 0.00 | 92 | 1009.2 |
| 20260510042022 | 54 | 146 | 0.0 | 0.0 | 0.00 | 0.00 | 0.00 | 92 | 1009.1 |
| 20260510041520 | 54 | 131 | 0.0 | 0.0 | 0.00 | 0.00 | 0.00 | 92 | 1009.2 |
| 20260510041017 | 54 | 165 | 1.0 | 1.0 | 0.00 | 0.00 | 0.00 | 92 | 1009.0 |
| 20260510040514 | 54 | 202 | 0.0 | 0.0 | 0.00 | 0.00 | 0.00 | 92 | 1008.9 |
| 20260510040009 | 55 | 202 | 0.0 | 0.0 | 0.00 | 0.61 | 0.61 | 91 | 1008.9 |
| 20260510035506 | 55 | 203 | 0.0 | 0.0 | 0.00 | 0.61 | 0.61 | 91 | 1009.1 |
| 20260510035005 | 55 | 203 | 0.0 | 0.0 | 0.00 | 0.61 | 0.61 | 90 | 1009.0 |
| 20260510034504 | 55 | 193 | 0.0 | 0.0 | 0.07 | 0.61 | 0.61 | 89 | 1008.9 |
| 20260510034000 | 55 | 140 | 3.0 | 3.0 | 0.07 | 0.61 | 0.61 | 90 | 1009.1 |
| 20260510033456 | 55 | 165 | 0.0 | 1.0 | 0.00 | 0.60 | 0.60 | 90 | 1009.2 |
| 20260510032954 | 56 | 158 | 1.0 | 0.0 | 0.00 | 0.60 | 0.60 | 89 | 1009.3 |
| 20260510032450 | 56 | 72 | 0.0 | 0.0 | 0.05 | 0.60 | 0.60 | 89 | 1009.1 |
| 20260510031945 | 56 | 248 | 5.0 | 7.0 | 0.05 | 0.60 | 0.60 | 89 | 1009.4 |
| 20260510031441 | 55 | 255 | 2.0 | 2.0 | 0.07 | 0.59 | 0.59 | 90 | 1009.2 |
| 20260510030937 | 55 | 321 | 1.0 | 1.0 | 0.00 | 0.58 | 0.58 | 92 | 1009.6 |
| 20260510030432 | 55 | 171 | 0.0 | 0.0 | 0.00 | 0.58 | 0.58 | 92 | 1009.0 |
| 20260510025930 | 54 | 179 | 0.0 | 0.0 | 0.00 | 0.58 | 0.58 | 92 | 1009.2 |
| 20260510025427 | 54 | 178 | 0.0 | 0.0 | 0.00 | 0.58 | 0.58 | 92 | 1009.1 |
| 20260510024925 | 55 | 232 | 0.0 | 0.0 | 0.00 | 0.58 | 0.58 | 92 | 1009.3 |
| 20260510024421 | 55 | 199 | 0.0 | 0.0 | 0.00 | 0.58 | 0.58 | 91 | 1009.1 |
| 20260510023917 | 55 | 216 | 0.0 | 0.0 | 0.05 | 0.58 | 0.58 | 90 | 1008.9 |
| 20260510023413 | 55 | 270 | 2.0 | 2.0 | 0.17 | 0.58 | 0.58 | 90 | 1008.8 |
| 20260510022911 | 55 | 179 | 2.0 | 2.0 | 0.19 | 0.57 | 0.57 | 89 | 1009.0 |
| 20260510022409 | 56 | 299 | 2.0 | 2.0 | 0.24 | 0.56 | 0.56 | 88 | 1009.7 |
| 20260510021909 | 56 | 286 | 5.0 | 6.0 | 0.47 | 0.54 | 0.54 | 89 | 1009.7 |
| 20260510021407 | 54 | 211 | 5.0 | 9.0 | 0.40 | 0.51 | 0.51 | 96 | 1009.5 |
| 20260510020903 | 53 | 177 | 0.0 | 0.0 | 0.17 | 0.47 | 0.47 | 96 | 1009.1 |
| 20260510020358 | 53 | 96 | 0.0 | 0.0 | 0.00 | 0.44 | 0.44 | 96 | 1008.6 |
| 20260510015854 | 53 | 96 | 0.0 | 0.0 | 0.00 | 0.44 | 0.44 | 96 | 1008.5 |
| 20260510015350 | 53 | 96 | 0.0 | 0.0 | 0.00 | 0.44 | 0.44 | 96 | 1008.5 |
| 20260510014845 | 53 | 96 | 0.0 | 0.0 | 0.00 | 0.44 | 0.44 | 95 | 1008.6 |
| 20260510014343 | 53 | 97 | 0.0 | 0.0 | 0.00 | 0.44 | 0.44 | 95 | 1008.4 |
| 20260510013839 | 53 | 126 | 0.0 | 0.0 | 0.00 | 0.44 | 0.44 | 95 | 1008.0 |
| 20260510013335 | 53 | 126 | 0.0 | 0.0 | 0.00 | 0.44 | 0.44 | 95 | 1008.3 |
| 20260510012830 | 53 | 126 | 0.0 | 0.0 | 0.00 | 0.44 | 0.44 | 94 | 1008.5 |
| 20260510012330 | 53 | 126 | 0.0 | 0.0 | 0.00 | 0.44 | 0.44 | 94 | 1008.3 |
| 20260510011825 | 53 | 126 | 0.0 | 0.0 | 0.00 | 0.44 | 0.44 | 94 | 1008.1 |
| 20260510011320 | 53 | 126 | 0.0 | 0.0 | 0.00 | 0.44 | 0.44 | 94 | 1008.3 |
| 20260510010817 | 54 | 127 | 0.0 | 0.0 | 0.00 | 0.44 | 0.44 | 93 | 1008.1 |
| 20260510010314 | 54 | 126 | 0.0 | 0.0 | 0.00 | 0.44 | 0.44 | 93 | 1008.1 |
| 20260510005811 | 54 | 127 | 1.0 | 1.0 | 0.00 | 0.44 | 0.44 | 93 | 1008.0 |
| 20260510005307 | 54 | 165 | 0.0 | 0.0 | 0.00 | 0.44 | 0.44 | 92 | 1008.0 |
| 20260510004805 | 54 | 166 | 0.0 | 0.0 | 0.00 | 0.44 | 0.44 | 91 | 1008.0 |
| 20260510004302 | 55 | 204 | 0.0 | 0.0 | 0.00 | 0.44 | 0.44 | 90 | 1008.0 |
| 20260510003759 | 55 | 99 | 0.0 | 0.0 | 0.00 | 0.44 | 0.44 | 90 | 1008.1 |
| 20260510003257 | 55 | 118 | 1.0 | 1.0 | 0.00 | 0.44 | 0.44 | 89 | 1008.2 |
| 20260510002755 | 55 | 154 | 1.0 | 1.0 | 0.00 | 0.44 | 0.44 | 90 | 1008.1 |
| 20260510002253 | 56 | 90 | 0.0 | 0.0 | 0.00 | 0.44 | 0.44 | 89 | 1007.9 |
| 20260510001749 | 56 | 18 | 2.0 | 2.0 | 0.00 | 0.44 | 0.44 | 89 | 1008.0 |
| 20260510001248 | 56 | 191 | 0.0 | 0.0 | 0.00 | 0.44 | 0.44 | 89 | 1008.0 |
| 20260510000743 | 56 | 287 | 1.0 | 0.0 | 0.00 | 0.44 | 0.44 | 88 | 1007.9 |
| 20260510000241 | 56 | 229 | 1.0 | 1.0 | 0.00 | 0.44 | 0.44 | 89 | 1008.0 |
| 20260509235737 | 56 | 264 | 2.0 | 2.0 | 0.07 | 0.44 | 0.44 | 89 | 1008.0 |
| 20260509235234 | 56 | 254 | 2.0 | 2.0 | 0.07 | 0.44 | 0.44 | 89 | 1008.1 |
| 20260509234730 | 56 | 49 | 0.0 | 0.0 | 0.07 | 0.44 | 0.44 | 89 | 1008.3 |
| 20260509234227 | 56 | 124 | 0.0 | 1.0 | 0.00 | 0.43 | 0.43 | 89 | 1008.3 |
| 20260509233725 | 56 | 222 | 1.0 | 1.0 | 0.00 | 0.43 | 0.43 | 90 | 1008.3 |
| 20260509233222 | 55 | 295 | 1.0 | 2.0 | 0.05 | 0.43 | 0.43 | 89 | 1008.0 |
| 20260509232718 | 56 | 54 | 1.0 | 1.0 | 0.17 | 0.43 | 0.43 | 89 | 1007.9 |
| 20260509232216 | 56 | 323 | 3.0 | 2.0 | 0.26 | 0.42 | 0.42 | 88 | 1008.0 |
| 20260509231712 | 56 | 329 | 8.0 | 11.0 | 0.42 | 0.40 | 0.40 | 88 | 1008.3 |
| 20260509231209 | 56 | 299 | 6.0 | 10.0 | 1.02 | 0.38 | 0.38 | 88 | 1008.5 |
| 20260509230706 | 57 | 260 | 5.0 | 7.0 | 0.78 | 0.34 | 0.34 | 86 | 1008.6 |
| 20260509230157 | 59 | 245 | 7.0 | 8.0 | 0.07 | 0.22 | 0.22 | 79 | 1008.9 |
| 20260509225653 | 64 | 291 | 10.0 | 15.0 | 0.00 | 0.21 | 0.21 | 66 | 1007.3 |
| 20260509225149 | 68 | 280 | 5.0 | 6.0 | 0.00 | 0.21 | 0.21 | 52 | 1007.2 |
| 20260509224645 | 68 | 273 | 5.0 | 6.0 | 0.00 | 0.21 | 0.21 | 50 | 1005.9 |
| 20260509224142 | 68 | 333 | 4.0 | 6.0 | 0.00 | 0.21 | 0.21 | 49 | 1005.9 |
| 20260509223639 | 68 | 200 | 2.0 | 3.0 | 0.00 | 0.21 | 0.21 | 48 | 1005.8 |
| 20260509223136 | 68 | 294 | 1.0 | 2.0 | 0.00 | 0.21 | 0.21 | 49 | 1005.5 |
| 20260509222633 | 68 | 230 | 2.0 | 2.0 | 0.00 | 0.21 | 0.21 | 48 | 1005.0 |
| 20260509222128 | 69 | 83 | 1.0 | 1.0 | 0.00 | 0.21 | 0.21 | 48 | 1005.5 |
| 20260509221624 | 68 | 199 | 2.0 | 3.0 | 0.00 | 0.21 | 0.21 | 49 | 1005.4 |
| 20260509221120 | 69 | 10 | 1.0 | 2.0 | 0.00 | 0.21 | 0.21 | 50 | 1005.6 |
| 20260509220616 | 69 | 220 | 1.0 | 1.0 | 0.00 | 0.21 | 0.21 | 50 | 1005.4 |
| 20260509220113 | 69 | 28 | 3.0 | 5.0 | 0.00 | 0.21 | 0.21 | 49 | 1005.5 |
| 20260509215609 | 69 | 114 | 0.0 | 0.0 | 0.00 | 0.21 | 0.21 | 51 | 1005.7 |
| 20260509215106 | 70 | 74 | 4.0 | 6.0 | 0.00 | 0.21 | 0.21 | 47 | 1005.4 |
| 20260509214602 | 71 | 228 | 4.0 | 6.0 | 0.00 | 0.21 | 0.21 | 46 | 1005.4 |
| 20260509214059 | 71 | 308 | 5.0 | 6.0 | 0.00 | 0.21 | 0.21 | 45 | 1005.7 |
| 20260509213555 | 72 | 300 | 2.0 | 2.0 | 0.00 | 0.21 | 0.21 | 45 | 1005.6 |
| 20260509213052 | 72 | 111 | 0.0 | 0.0 | 0.00 | 0.21 | 0.21 | 47 | 1005.4 |
| 20260509212549 | 71 | 191 | 3.0 | 3.0 | 0.00 | 0.21 | 0.21 | 48 | 1005.5 |
| 20260509212046 | 71 | 182 | 4.0 | 3.0 | 0.00 | 0.21 | 0.21 | 51 | 1005.5 |
| 20260509211542 | 71 | 128 | 2.0 | 2.0 | 0.00 | 0.21 | 0.21 | 48 | 1005.2 |
| 20260509211039 | 71 | 176 | 1.0 | 1.0 | 0.00 | 0.21 | 0.21 | 51 | 1005.3 |
| 20260509210536 | 71 | 301 | 5.0 | 6.0 | 0.00 | 0.21 | 0.21 | 49 | 1005.8 |
| 20260509210032 | 71 | 60 | 2.0 | 2.0 | 0.00 | 0.21 | 0.21 | 49 | 1005.7 |
| 20260509205526 | 71 | 296 | 2.0 | 3.0 | 0.00 | 0.21 | 0.21 | 51 | 1005.8 |
| 20260509205022 | 71 | 179 | 1.0 | 3.0 | 0.00 | 0.21 | 0.21 | 51 | 1005.8 |
| 20260509204518 | 71 | 325 | 1.0 | 3.0 | 0.00 | 0.21 | 0.21 | 51 | 1005.9 |
| 20260509204015 | 71 | 179 | 3.0 | 5.0 | 0.00 | 0.21 | 0.21 | 50 | 1005.7 |
| 20260509203510 | 71 | 341 | 1.0 | 2.0 | 0.00 | 0.21 | 0.21 | 51 | 1006.0 |
| 20260509203009 | 71 | 188 | 4.0 | 6.0 | 0.00 | 0.21 | 0.21 | 49 | 1006.0 |
| 20260509202503 | 71 | 283 | 3.0 | 3.0 | 0.00 | 0.21 | 0.21 | 50 | 1006.2 |
| 20260509201959 | 70 | 259 | 2.0 | 2.0 | 0.00 | 0.21 | 0.21 | 51 | 1006.3 |
| 20260509201454 | 71 | 92 | 4.0 | 6.0 | 0.00 | 0.21 | 0.21 | 49 | 1006.4 |
| 20260509200952 | 71 | 172 | 2.0 | 3.0 | 0.00 | 0.21 | 0.21 | 51 | 1006.4 |
| 20260509200446 | 71 | 170 | 5.0 | 9.0 | 0.00 | 0.21 | 0.21 | 50 | 1006.4 |
| 20260509195943 | 71 | 162 | 8.0 | 9.0 | 0.00 | 0.21 | 0.21 | 51 | 1006.6 |
| 20260509195433 | 71 | 336 | 3.0 | 3.0 | 0.00 | 0.21 | 0.21 | 50 | 1006.7 |
| 20260509194933 | 72 | 314 | 1.0 | 2.0 | 0.00 | 0.21 | 0.21 | 48 | 1006.8 |
| 20260509194428 | 71 | 253 | 4.0 | 5.0 | 0.00 | 0.21 | 0.21 | 51 | 1006.9 |
| 20260509193926 | 71 | 321 | 6.0 | 7.0 | 0.00 | 0.21 | 0.21 | 48 | 1006.4 |
| 20260509193425 | 70 | 280 | 4.0 | 5.0 | 0.00 | 0.21 | 0.21 | 50 | 1006.6 |
| 20260509192922 | 70 | 189 | 5.0 | 7.0 | 0.00 | 0.21 | 0.21 | 49 | 1006.8 |
| 20260509192418 | 70 | 251 | 3.0 | 5.0 | 0.00 | 0.21 | 0.21 | 51 | 1007.3 |
| 20260509191913 | 71 | 179 | 6.0 | 8.0 | 0.00 | 0.21 | 0.21 | 52 | 1007.3 |
| 20260509191409 | 70 | 236 | 4.0 | 6.0 | 0.00 | 0.21 | 0.21 | 50 | 1007.1 |
| 20260509190905 | 69 | 162 | 3.0 | 3.0 | 0.00 | 0.21 | 0.21 | 54 | 1007.4 |
| 20260509190403 | 69 | 220 | 7.0 | 9.0 | 0.00 | 0.21 | 0.21 | 52 | 1007.4 |
| 20260509185900 | 69 | 162 | 4.0 | 5.0 | 0.00 | 0.21 | 0.21 | 53 | 1007.5 |
| 20260509185356 | 70 | 194 | 5.0 | 7.0 | 0.00 | 0.21 | 0.21 | 52 | 1007.4 |
| 20260509184853 | 68 | 221 | 4.0 | 6.0 | 0.00 | 0.21 | 0.21 | 52 | 1007.6 |
| 20260509184350 | 68 | 305 | 3.0 | 2.0 | 0.00 | 0.21 | 0.21 | 54 | 1007.7 |
| 20260509183847 | 68 | 182 | 6.0 | 8.0 | 0.00 | 0.21 | 0.21 | 54 | 1007.8 |
| 20260509183342 | 68 | 118 | 1.0 | 1.0 | 0.00 | 0.21 | 0.21 | 55 | 1007.4 |
| 20260509182838 | 68 | 2 | 2.0 | 2.0 | 0.00 | 0.21 | 0.21 | 57 | 1007.7 |
| 20260509182336 | 68 | 276 | 7.0 | 11.0 | 0.00 | 0.21 | 0.21 | 53 | 1007.7 |
| 20260509181833 | 68 | 176 | 5.0 | 7.0 | 0.00 | 0.21 | 0.21 | 53 | 1007.7 |
| 20260509181330 | 68 | 169 | 6.0 | 8.0 | 0.00 | 0.21 | 0.21 | 54 | 1007.5 |
| 20260509180827 | 69 | 327 | 3.0 | 3.0 | 0.00 | 0.21 | 0.21 | 54 | 1007.5 |
| 20260509180323 | 69 | 84 | 2.0 | 2.0 | 0.00 | 0.21 | 0.21 | 53 | 1007.4 |
| 20260509175820 | 69 | 210 | 1.0 | 2.0 | 0.00 | 0.21 | 0.21 | 54 | 1007.7 |
| 20260509175316 | 68 | 341 | 5.0 | 6.0 | 0.00 | 0.21 | 0.21 | 54 | 1007.3 |
| 20260509174812 | 67 | 148 | 1.0 | 2.0 | 0.00 | 0.21 | 0.21 | 55 | 1007.4 |
| 20260509174308 | 67 | 177 | 1.0 | 1.0 | 0.00 | 0.21 | 0.21 | 58 | 1007.9 |
| 20260509173804 | 68 | 190 | 4.0 | 6.0 | 0.00 | 0.21 | 0.21 | 54 | 1007.8 |
| 20260509173300 | 68 | 275 | 4.0 | 5.0 | 0.00 | 0.21 | 0.21 | 55 | 1007.9 |
| 20260509172756 | 68 | 151 | 5.0 | 6.0 | 0.00 | 0.21 | 0.21 | 55 | 1007.7 |
| 20260509172253 | 67 | 184 | 4.0 | 7.0 | 0.00 | 0.21 | 0.21 | 56 | 1007.7 |
| 20260509171748 | 66 | 231 | 6.0 | 8.0 | 0.00 | 0.21 | 0.21 | 56 | 1007.9 |
| 20260509171245 | 66 | 355 | 3.0 | 3.0 | 0.00 | 0.21 | 0.21 | 57 | 1007.7 |